Powrót do katalogu

COSMOS 2609

AktywnyMilitariaPO
NORAD 68754·PAYLOAD·🇷🇺 Russia

Wystrzelony Apr 16, 2026 z Plesetsk Cosmodrome

Loading…

Następne Przeloty (najbliższe 24 godziny)

TLE

ŚwieżeSource: Space-Track

Epoka: Sep 14, 2026, 21:55 UTC

1 68754U 26083B   26257.91387435  .00002032  00000-0  14478-3 0  9995
2 68754  98.1348  51.6938 0012621  86.9067 273.3602 15.05794282 22735

Śledź COSMOS 2609 w czasie rzeczywistym z AllMySat

Download on the App Store